Location: Sternwarte Stuttgart
(48.7670°N, 9.1830°E)
Time: 11:27:49
(UTC+01:00)

Cosmos 405 Rocket - Pass Details

Date: 24 January 2019
Orbit: 490 x 556 km, 81.3° (Epoch: 21 February)

Event Time Altitude Azimuth Distance (km) Brightness Sun altitude
Rises 05:36:19 0° 168° (SSE) 2,633 6.5 -24.0°
Reaches altitude 10° 05:38:35 10° 159° (SSE) 1,739 5.6 -23.6°
Maximum altitude 05:42:03 34° 94° (E) 866 4.4 -23.0°
Drops below altitude 10° 05:45:28 10° 29° (NNE) 1,722 5.6 -22.5°
Sets 05:47:42 0° 20° (NNE) 2,603 6.5 -22.1°
